Weather History for Wildwood, NJ

Change the Weather History Date:

Wednesday, September 19, 2012

  Actual Average Record
Temperature  
Mean Temperature 60 °F -  
Max Temperature 69 °F 73 °F 84 °F (2005)
Min Temperature 51 °F 58 °F 46 °F (2013)
Degree Days  
Heating Degree Days 5    
Growing Degree Days 10 (Base 50)    
Moisture  
Dew Point 53 °F    
Average Humidity 69    
Maximum Humidity 94    
Minimum Humidity 43    
Precipitation  
Precipitation 0.29 in - - ()
Sea Level Pressure  
Sea Level Pressure 30.03 in    
Wind  
Wind Speed 8 mph (NW)    
Max Wind Speed 15 mph    
Max Gust Speed 24 mph    
Visibility 10 miles    
Events      
Averages and records for this station are not official NWS values.
T = Trace of Precipitation, MM = Missing Value Source: NWS Daily Summary

Daily Weather History Graph

Daily Weather History Graph

Search for Another Location

Airport:

Trip Planner

Search our weather history database for the weather conditions in past years. The results will help you decide how hot, cold, wet, or windy it might be!

Date:

Astronomy

Sep. 19, 2012 Rise Set
Actual Time 6:45 AM EDT 7:00 PM EDT
Civil Twilight 6:18 AM EDT 7:27 PM EDT
Nautical Twilight 5:47 AM EDT 7:58 PM EDT
Astronomical Twilight 5:15 AM EDT 8:30 PM EDT
Moon 10:49 AM EDT (9/19) 9:10 PM EDT (9/19)
Length of Visible Light 13h 09m
Length of Day
12h 15m
Waxing Crescent, 17% of the Moon is Illuminated
Sep 19
Waxing Crescent
Sep 22
First Quarter
Sep 29
Full
Oct 8
Last Quarter
Oct 15
New

Hourly Weather History & Observations

Time (EDT) Temp. Dew Point Humidity Pressure Visibility Wind Dir Wind Speed Gust Speed Precip Events Conditions
12:35 AM 68.0 °F 66.2 °F 94% 29.80 in 10.0 mi WSW 9.2 mph - N/A   Partly Cloudy
12:55 AM 68.0 °F 66.2 °F 94% 29.80 in 10.0 mi WSW 6.9 mph - N/A   Partly Cloudy
1:15 AM 69.8 °F 66.2 °F 88% 29.80 in 10.0 mi WSW 8.1 mph - N/A   Mostly Cloudy
1:35 AM 69.8 °F 66.2 °F 88% 29.81 in 10.0 mi WSW 11.5 mph - N/A   Mostly Cloudy
1:55 AM 69.8 °F 66.2 °F 88% 29.82 in 10.0 mi WSW 11.5 mph - N/A   Mostly Cloudy
2:15 AM 69.8 °F 66.2 °F 88% 29.82 in 10.0 mi WSW 9.2 mph - N/A   Overcast
2:35 AM 69.8 °F 66.2 °F 88% 29.82 in 10.0 mi West 11.5 mph - N/A   Overcast
2:55 AM 69.8 °F 66.2 °F 88% 29.83 in 10.0 mi West 11.5 mph 17.3 mph N/A   Overcast
3:15 AM 66.2 °F 60.8 °F 83% 29.83 in 10.0 mi NW 15.0 mph 23.0 mph N/A   Overcast
3:35 AM 66.2 °F 60.8 °F 83% 29.83 in 10.0 mi NW 10.4 mph 20.7 mph N/A   Overcast
3:55 AM 66.2 °F 60.8 °F 83% 29.84 in 10.0 mi NNW 12.7 mph 20.7 mph N/A   Overcast
4:15 AM 64.4 °F 60.8 °F 88% 29.85 in 10.0 mi NNW 9.2 mph - N/A   Overcast
4:35 AM 64.4 °F 60.8 °F 88% 29.87 in 10.0 mi NNW 11.5 mph 18.4 mph N/A   Overcast
4:55 AM 64.4 °F 60.8 °F 88% 29.88 in 10.0 mi NNW 9.2 mph - N/A   Overcast
5:15 AM 64.4 °F 60.8 °F 88% 29.89 in 10.0 mi NNW 6.9 mph - N/A   Overcast
5:55 AM 64.4 °F 55.4 °F 73% 29.92 in 10.0 mi NNW 10.4 mph 24.2 mph N/A   Overcast
6:15 AM 64.4 °F 55.4 °F 73% 29.93 in 10.0 mi NNW 12.7 mph - N/A   Overcast
6:35 AM 64.4 °F 55.4 °F 73% 29.93 in 10.0 mi NNW 9.2 mph 18.4 mph N/A   Overcast
6:55 AM 64.4 °F 55.4 °F 73% 29.94 in 10.0 mi NNW 10.4 mph 19.6 mph N/A   Overcast
7:15 AM 62.6 °F 55.4 °F 77% 29.96 in 10.0 mi North 8.1 mph - N/A   Overcast
7:35 AM 62.6 °F 53.6 °F 72% 29.97 in 10.0 mi NNW 6.9 mph 17.3 mph N/A   Overcast
7:55 AM 64.4 °F 53.6 °F 68% 29.97 in 10.0 mi NNW 9.2 mph - N/A   Overcast
8:15 AM 62.6 °F 53.6 °F 72% 29.99 in 10.0 mi NNW 8.1 mph - N/A   Overcast
8:35 AM 62.6 °F 55.4 °F 77% 30.00 in 10.0 mi NNW 8.1 mph - N/A   Overcast
8:55 AM 62.6 °F 55.4 °F 77% 30.01 in 10.0 mi NNW 5.8 mph - N/A   Overcast
9:15 AM 64.4 °F 55.4 °F 73% 30.02 in 10.0 mi NNW 6.9 mph - N/A   Overcast
9:35 AM 64.4 °F 55.4 °F 73% 30.02 in 10.0 mi North 8.1 mph - N/A   Overcast
9:55 AM 64.4 °F 55.4 °F 73% 30.04 in 10.0 mi NNW 9.2 mph - N/A   Overcast
10:15 AM 64.4 °F 55.4 °F 73% 30.04 in 10.0 mi North 10.4 mph - N/A   Overcast
10:55 AM 64.4 °F 48.2 °F 56% 30.06 in 10.0 mi North 10.4 mph - N/A   Overcast
11:15 AM 66.2 °F 48.2 °F 52% 30.07 in 10.0 mi North 10.4 mph - N/A   Overcast
11:35 AM 66.2 °F 48.2 °F 52% 30.07 in 10.0 mi North 12.7 mph - N/A   Overcast
11:55 AM 66.2 °F 50.0 °F 56% 30.07 in 10.0 mi North 11.5 mph - N/A   Scattered Clouds
12:15 PM 66.2 °F 50.0 °F 56% 30.08 in 10.0 mi North 8.1 mph - N/A   Clear
12:35 PM 66.2 °F 50.0 °F 56% 30.09 in 10.0 mi North 6.9 mph - N/A   Partly Cloudy
12:55 PM 66.2 °F 50.0 °F 56% 30.09 in 10.0 mi NNE 3.5 mph - N/A   Scattered Clouds
1:15 PM 68.0 °F 48.2 °F 49% 30.09 in 10.0 mi North 6.9 mph - N/A   Scattered Clouds
1:35 PM 69.8 °F 50.0 °F 49% 30.09 in 10.0 mi WNW 8.1 mph - N/A   Partly Cloudy
1:55 PM 69.8 °F 48.2 °F 46% 30.10 in 10.0 mi WNW 8.1 mph - N/A   Clear
2:15 PM 69.8 °F 48.2 °F 46% 30.10 in 10.0 mi NW 10.4 mph - N/A   Clear
2:35 PM 69.8 °F 46.4 °F 43% 30.08 in 10.0 mi NNW 9.2 mph - N/A   Clear
2:55 PM 69.8 °F 48.2 °F 46% 30.09 in 10.0 mi WNW 8.1 mph - N/A   Clear
3:15 PM 69.8 °F 48.2 °F 46% 30.09 in 10.0 mi NW 6.9 mph - N/A   Clear
3:35 PM 69.8 °F 48.2 °F 46% 30.09 in 10.0 mi WNW 9.2 mph - N/A   Clear
3:55 PM 69.8 °F 46.4 °F 43% 30.09 in 10.0 mi NW 6.9 mph - N/A   Clear
4:15 PM 69.8 °F 48.2 °F 46% 30.09 in 10.0 mi NW 8.1 mph - N/A   Clear
4:35 PM 69.8 °F 46.4 °F 43% 30.10 in 10.0 mi NW 5.8 mph - N/A   Clear
4:55 PM 69.8 °F 48.2 °F 46% 30.10 in 10.0 mi West 6.9 mph - N/A   Clear
5:15 PM 68.0 °F 48.2 °F 49% 30.11 in 10.0 mi West 8.1 mph - N/A   Clear
5:35 PM 66.2 °F 50.0 °F 56% 30.12 in 10.0 mi West 4.6 mph - N/A   Clear
5:55 PM 68.0 °F 50.0 °F 52% 30.12 in 9.0 mi West 4.6 mph - N/A   Clear
6:15 PM 66.2 °F 48.2 °F 52% 30.13 in 10.0 mi WNW 3.5 mph - N/A   Clear
6:35 PM 64.4 °F 51.8 °F 64% 30.13 in 10.0 mi Calm Calm - N/A   Clear
6:55 PM 64.4 °F 50.0 °F 59% 30.13 in 10.0 mi NNW 4.6 mph - N/A   Clear
7:15 PM 62.6 °F 50.0 °F 63% 30.13 in 10.0 mi North 4.6 mph - N/A   Clear
7:35 PM 62.6 °F 50.0 °F 63% 30.13 in 10.0 mi North 4.6 mph - N/A   Clear
7:55 PM 60.8 °F 50.0 °F 68% 30.13 in 10.0 mi North 3.5 mph - N/A   Clear
8:15 PM 60.8 °F 48.2 °F 63% 30.14 in 10.0 mi North 3.5 mph - N/A   Clear
8:35 PM 59.0 °F 50.0 °F 72% 30.15 in 10.0 mi North 3.5 mph - N/A   Clear
8:55 PM 57.2 °F 50.0 °F 77% 30.16 in 10.0 mi Calm Calm - N/A   Clear
9:15 PM 57.2 °F 48.2 °F 72% 30.17 in 10.0 mi Calm Calm - N/A   Clear
9:35 PM 55.4 °F 48.2 °F 77% 30.17 in 10.0 mi Calm Calm - N/A   Clear
9:55 PM 55.4 °F 50.0 °F 82% 30.17 in 10.0 mi Calm Calm - N/A   Clear
10:15 PM 55.4 °F 50.0 °F 82% 30.17 in 10.0 mi Calm Calm - N/A   Clear
10:35 PM 55.4 °F 48.2 °F 77% 30.18 in 10.0 mi Calm Calm - N/A   Clear
10:55 PM 53.6 °F 48.2 °F 82% 30.17 in 10.0 mi Calm Calm - N/A   Clear
11:15 PM 53.6 °F 48.2 °F 82% 30.17 in 10.0 mi Calm Calm - N/A   Clear
11:35 PM 51.8 °F 48.2 °F 88% 30.17 in 10.0 mi Calm Calm - N/A   Clear
11:55 PM 53.6 °F 48.2 °F 82% 30.16 in 10.0 mi Calm Calm - N/A   Clear